User: anonymous   Login
Location: Santa Teresa Spring
(37.2333°N, 121.7000°W)
Time: 19:28:39
(UTC-07:00)
Language:

Cosmos 1633 - Orbit

View from above orbital plane
View from above orbital plane
View from above satellite
View from above satellite

Ground track
Ground track

The orbit data is extracted from the following two-line orbital elements,

1 15592U 85020A   17146.58389856 +.00001458 +00000-0 +51344-4 0  9997
2 15592 082.5370 340.9586 0012060 252.0222 107.9703 15.28425730760713
Epoch (UTC): 26 May 2017 14:00:48
Eccentricity: 0.0012060
inclination: 82.5370°
perigee height: 472 km
apogee height: 489 km
right ascension of ascending node: 340.9586°
argument of perigee: 252.0222°
revolutions per day: 15.28425730
mean anomaly at epoch: 107.9703°
orbit number at epoch: 76071

The dashed part of the orbit path shows where the satellite is in the earth's shadow,  

DLR